Find Starlink 33695

NORAD ID: 63478 Int'l Des: 2025-070 Owner: SPXS Country: US Constellation: starlink operational
LEOCIRCULAR

Live Position

Loading 3D Globe...

About Starlink 33695

Description loading...

Upcoming Passes

Passes for default location (London). Set your location on the main map for personalized predictions.

Altitude History

Loading altitude history...

Two-Line Element Set

1 63478U 25070U 26139.52961980 .00010672 00000-0 39653-3 0 9998
2 63478 43.0013 215.9783 0001127 265.7019 94.3704 15.27599933 63859
Epoch: May 19, 2026 • Age: 19 hours

Current Status

Altitude 485.9 km
Velocity 7.63 km/s
Sub-Earth Point 38.79°N, 26.11°W
Launch Date Apr 6, 2025
Age 1.1 years
Type internet

Technical Details

Classification Payload
Mass 575.00 kg
Dry Mass 530.00 kg
Total Mass 575.00 kg
Length 0.30 m
Diameter 4.10 m
Span 29.00 m
Shape Box + pan
Manufacturer SPXS
Bus Type Starlink V2MO
Phase Status In Orbit
Owner/State SPXS/US

Most Searched